Time,TemperatureF,DewpointF,PressureIn,WindDirection,WindDirectionDegrees,WindSpeedMPH,WindSpeedGustMPH,Humidity,HourlyPrecipIn,Conditions,Clouds,dailyrainin,SolarRadiationWatts/m^2,SoftwareType,DateUTC
2013-08-03 00:02:00,85.0,32.0,29.67,SSW,204,6.0,10.0,15,0.00,,,0.00,0.000000,,2013-08-03 07:02:00,
2013-08-03 00:12:00,85.0,32.0,29.68,South,184,6.0,14.0,15,0.00,,,0.00,0.000000,,2013-08-03 07:12:00,
2013-08-03 00:32:00,85.0,32.0,29.68,SSW,209,7.0,14.0,15,0.00,,,0.00,0.000000,,2013-08-03 07:32:00,
2013-08-03 00:43:00,85.0,32.0,29.68,SSW,193,6.0,10.0,15,0.00,,,0.00,0.000000,,2013-08-03 07:43:00,
2013-08-03 00:52:00,85.0,32.0,29.68,South,190,5.0,9.0,15,0.00,,,0.00,0.000000,,2013-08-03 07:52:00,
2013-08-03 01:02:00,85.0,32.0,29.68,South,190,5.0,9.0,15,0.00,,,0.00,0.000000,,2013-08-03 08:02:00,
2013-08-03 01:11:00,84.0,33.0,29.68,SSW,209,5.0,14.0,16,0.00,,,0.00,0.000000,,2013-08-03 08:11:00,
2013-08-03 01:22:00,84.0,33.0,29.68,SSW,209,5.0,14.0,16,0.00,,,0.00,0.000000,,2013-08-03 08:22:00,
2013-08-03 01:32:00,85.0,34.0,29.68,SSW,207,4.0,13.0,16,0.00,,,0.00,0.000000,,2013-08-03 08:32:00,
2013-08-03 01:43:00,85.0,34.0,29.68,SW,221,4.0,12.0,16,0.00,,,0.00,0.000000,,2013-08-03 08:43:00,
2013-08-03 01:52:00,85.0,34.0,29.68,SW,221,4.0,12.0,16,0.00,,,0.00,0.000000,,2013-08-03 08:52:00,
2013-08-03 02:02:00,85.0,34.0,29.68,SSW,205,4.0,10.0,16,0.00,,,0.00,0.000000,,2013-08-03 09:02:00,
2013-08-03 02:12:00,85.0,34.0,29.68,SSW,194,9.0,17.0,16,0.00,,,0.00,0.000000,,2013-08-03 09:12:00,
2013-08-03 02:22:00,85.0,34.0,29.68,SSW,194,9.0,17.0,16,0.00,,,0.00,0.000000,,2013-08-03 09:22:00,
2013-08-03 02:32:00,85.0,34.0,29.68,South,184,7.0,14.0,16,0.00,,,0.00,0.000000,,2013-08-03 09:32:00,
2013-08-03 03:02:00,84.0,34.0,29.68,SE,142,5.0,8.0,17,0.00,,,0.00,0.000000,,2013-08-03 10:02:00,
2013-08-03 03:11:00,83.0,34.0,29.68,SW,217,7.0,11.0,17,0.00,,,0.00,0.000000,,2013-08-03 10:11:00,
2013-08-03 03:32:00,83.0,34.0,29.68,SSW,200,6.0,11.0,17,0.00,,,0.00,0.000000,,2013-08-03 10:32:00,
2013-08-03 03:52:00,82.0,31.0,29.68,SSE,167,6.0,17.0,16,0.00,,,0.00,0.000000,,2013-08-03 10:52:00,
2013-08-03 04:02:00,82.0,31.0,29.68,SSE,167,6.0,17.0,16,0.00,,,0.00,0.000000,,2013-08-03 11:02:00,
2013-08-03 04:11:00,82.0,31.0,29.68,South,184,7.0,17.0,16,0.00,,,0.00,0.000000,,2013-08-03 11:11:00,
2013-08-03 04:22:00,82.0,31.0,29.68,South,184,7.0,17.0,16,0.00,,,0.00,0.000000,,2013-08-03 11:22:00,
2013-08-03 04:32:00,82.0,36.0,29.68,SSW,194,7.0,15.0,19,0.00,,,0.00,0.000000,,2013-08-03 11:32:00,
2013-08-03 04:43:00,82.0,34.0,29.69,South,171,9.0,15.0,18,0.00,,,0.00,0.000000,,2013-08-03 11:43:00,
2013-08-03 04:53:00,82.0,34.0,29.69,South,171,9.0,15.0,18,0.00,,,0.00,0.000000,,2013-08-03 11:53:00,
2013-08-03 05:02:00,81.0,33.0,29.69,South,182,8.0,18.0,18,0.00,,,0.00,0.000000,,2013-08-03 12:02:00,
2013-08-03 05:12:00,81.0,33.0,29.69,SSE,165,9.0,15.0,18,0.00,,,0.00,0.000000,,2013-08-03 12:12:00,
2013-08-03 05:32:00,80.0,34.0,29.70,South,187,12.0,19.0,19,0.00,,,0.00,0.000000,,2013-08-03 12:32:00,
2013-08-03 05:43:00,79.0,33.0,29.70,SSW,199,15.0,20.0,19,0.00,,,0.00,0.000000,,2013-08-03 12:43:00,
2013-08-03 05:52:00,79.0,33.0,29.70,SSW,199,15.0,20.0,19,0.00,,,0.00,0.000000,,2013-08-03 12:52:00,
2013-08-03 06:01:00,78.0,34.0,29.70,SSW,207,17.0,22.0,20,0.00,,,0.00,0.000000,,2013-08-03 13:01:00,
2013-08-03 06:12:00,78.0,34.0,29.71,South,190,16.0,21.0,20,0.00,,,0.00,0.000000,,2013-08-03 13:12:00,
2013-08-03 06:21:00,78.0,34.0,29.71,South,190,16.0,21.0,20,0.00,,,0.00,0.000000,,2013-08-03 13:21:00,
2013-08-03 06:32:00,78.0,34.0,29.71,SSW,195,17.0,23.0,20,0.00,,,0.00,12.000000,,2013-08-03 13:32:00,
2013-08-03 06:43:00,79.0,36.0,29.72,SSW,193,16.0,25.0,21,0.00,,,0.00,37.000000,,2013-08-03 13:43:00,
2013-08-03 06:52:00,79.0,36.0,29.72,SSW,193,16.0,25.0,21,0.00,,,0.00,37.000000,,2013-08-03 13:52:00,
2013-08-03 07:02:00,79.0,34.0,29.72,SSW,200,16.0,21.0,20,0.00,,,0.00,76.000000,,2013-08-03 14:02:00,
2013-08-03 07:12:00,80.0,35.0,29.73,SSW,202,15.0,21.0,20,0.00,,,0.00,181.000000,,2013-08-03 14:12:00,
2013-08-03 07:21:00,80.0,35.0,29.73,SSW,202,15.0,21.0,20,0.00,,,0.00,181.000000,,2013-08-03 14:21:00,
2013-08-03 07:32:00,80.0,35.0,29.73,SSW,202,15.0,21.0,20,0.00,,,0.00,181.000000,,2013-08-03 14:32:00,
2013-08-03 07:42:00,82.0,36.0,29.74,SSW,212,14.0,20.0,19,0.00,,,0.00,274.000000,,2013-08-03 14:42:00,
2013-08-03 07:52:00,82.0,36.0,29.74,SSW,212,14.0,20.0,19,0.00,,,0.00,274.000000,,2013-08-03 14:52:00,
2013-08-03 08:02:00,83.0,38.0,29.74,SSW,208,10.0,16.0,20,0.00,,,0.00,318.000000,,2013-08-03 15:02:00,
2013-08-03 08:12:00,83.0,38.0,29.74,SSW,208,10.0,16.0,20,0.00,,,0.00,318.000000,,2013-08-03 15:12:00,
2013-08-03 08:32:00,85.0,37.0,29.74,SSE,158,10.0,18.0,18,0.00,,,0.00,417.000000,,2013-08-03 15:32:00,
2013-08-03 09:02:00,87.0,37.0,29.75,South,184,10.0,16.0,17,0.00,,,0.00,504.000000,,2013-08-03 16:02:00,
2013-08-03 09:12:00,89.0,38.0,29.76,SSW,196,7.0,14.0,17,0.00,,,0.00,548.000000,,2013-08-03 16:12:00,
2013-08-03 09:33:00,90.0,38.0,29.75,SSW,207,11.0,22.0,16,0.00,,,0.00,587.000000,,2013-08-03 16:33:00,
2013-08-03 09:43:00,91.0,37.0,29.76,SSE,161,8.0,15.0,15,0.00,,,0.00,628.000000,,2013-08-03 16:43:00,
2013-08-03 11:12:00,96.0,37.0,29.76,South,175,1.0,6.0,13,0.00,,,0.00,814.000000,,2013-08-03 18:12:00,
2013-08-03 11:21:00,96.0,37.0,29.76,South,175,1.0,6.0,13,0.00,,,0.00,814.000000,,2013-08-03 18:21:00,
2013-08-03 12:32:00,98.0,35.0,29.73,NNW,341,2.0,8.0,11,0.00,,,0.00,881.000000,,2013-08-03 19:32:00,
2013-08-03 20:11:00,94.0,34.0,29.66,SSW,213,6.0,12.0,12,0.00,,,0.00,0.000000,,2013-08-04 03:11:00,
2013-08-03 21:01:00,92.0,32.0,29.67,WSW,246,3.0,7.0,12,0.00,,,0.00,0.000000,,2013-08-04 04:01:00,
2013-08-03 21:12:00,91.0,31.0,29.67,SW,225,1.0,7.0,12,0.00,,,0.00,0.000000,,2013-08-04 04:12:00,
2013-08-03 21:22:00,91.0,31.0,29.67,SW,225,1.0,7.0,12,0.00,,,0.00,0.000000,,2013-08-04 04:22:00,
2013-08-03 21:32:00,91.0,31.0,29.67,SW,225,1.0,7.0,12,0.00,,,0.00,0.000000,,2013-08-04 04:32:00,
2013-08-03 21:42:00,91.0,31.0,29.67,SW,225,1.0,7.0,12,0.00,,,0.00,0.000000,,2013-08-04 04:42:00,
2013-08-03 21:52:00,91.0,31.0,29.67,SW,225,1.0,7.0,12,0.00,,,0.00,0.000000,,2013-08-04 04:52:00,
2013-08-03 22:01:00,91.0,31.0,29.70,West,261,1.0,5.0,12,0.00,,,0.00,0.000000,,2013-08-04 05:01:00,
2013-08-03 22:12:00,91.0,31.0,29.70,West,261,1.0,5.0,12,0.00,,,0.00,0.000000,,2013-08-04 05:12:00,
2013-08-03 22:22:00,91.0,31.0,29.70,West,261,1.0,5.0,12,0.00,,,0.00,0.000000,,2013-08-04 05:22:00,
2013-08-03 22:32:00,90.0,31.0,29.70,SW,235,3.0,6.0,12,0.00,,,0.00,0.000000,,2013-08-04 05:32:00,
2013-08-03 22:42:00,90.0,31.0,29.70,SW,235,3.0,6.0,12,0.00,,,0.00,0.000000,,2013-08-04 05:42:00,
2013-08-03 22:52:00,90.0,31.0,29.70,SW,235,3.0,6.0,12,0.00,,,0.00,0.000000,,2013-08-04 05:52:00,
2013-08-03 23:01:00,90.0,31.0,29.70,SW,235,3.0,6.0,12,0.00,,,0.00,0.000000,,2013-08-04 06:01:00,
2013-08-03 23:11:00,88.0,31.0,29.71,SSW,192,4.0,7.0,13,0.00,,,0.00,0.000000,,2013-08-04 06:11:00,
2013-08-03 23:22:00,87.0,32.0,29.71,SSW,210,7.0,12.0,14,0.00,,,0.00,0.000000,,2013-08-04 06:22:00,
2013-08-03 23:32:00,87.0,32.0,29.71,SSW,210,7.0,12.0,14,0.00,,,0.00,0.000000,,2013-08-04 06:32:00,
2013-08-03 23:51:00,87.0,32.0,29.72,South,170,2.0,7.0,14,0.00,,,0.00,0.000000,,2013-08-04 06:51:00,